Alva, OK

11:44 AM CST on February 22, 2017 (GMT -0600)
Alva Regional

Weather History for KAVK - March, 2014

Change the Weather History Date:

Sunday, March 2, 2014

  Actual Average Record
Temperature  
Mean Temperature 10 °F -  
Max Temperature 14 °F 57 °F 85 °F (1974)
Min Temperature 6 °F 35 °F 4 °F (1951)
Degree Days  
Heating Degree Days 55    
Moisture  
Dew Point 3 °F    
Average Humidity 78    
Maximum Humidity 85    
Minimum Humidity 72    
Precipitation  
Precipitation 1.26 in - - ()
Sea Level Pressure  
Sea Level Pressure 30.37 in    
Wind  
Wind Speed 19 mph (NNE)    
Max Wind Speed 25 mph    
Max Gust Speed 37 mph    
Visibility 6 miles    
Events Rain , Snow    
Averages and records for this station are not official NWS values.
T = Trace of Precipitation, MM = Missing Value Source: NWS Daily Summary

Daily Weather History Graph

Daily Weather History Graph

Search for Another Location

Airport or City:

Trip Planner

Search our weather history database for the weather conditions in past years. The results will help you decide how hot, cold, wet, or windy it might be!

Date:

Astronomy

Mar. 02, 2014 Rise Set
Actual Time 7:03 AM CST 6:30 PM CST
Civil Twilight 6:38 AM CST 6:56 PM CST
Nautical Twilight 6:08 AM CST 7:26 PM CST
Astronomical Twilight 5:38 AM CST 7:56 PM CST
Moon 7:39 AM CST (3/2) 8:23 PM CST (3/2)
Length of Visible Light 12h 18m
Length of Day
11h 26m
Waxing Crescent, 3% of the Moon is Illuminated
Mar 2
Waxing Crescent
Mar 8
First Quarter
Mar 16
Full
Mar 23
Last Quarter
Mar 30
New

Hourly Weather History & Observations

Time (CST) Temp. Windchill Dew Point Humidity Pressure Visibility Wind Dir Wind Speed Gust Speed Precip Events Conditions
12:10 AM 14.0 °F -2.5 °F 8.6 °F 79% 30.29 in 10.0 mi North 17.3 mph 27.6 mph N/A   Overcast
12:30 AM 14.0 °F -2.5 °F 8.6 °F 79% 30.28 in 8.0 mi NNE 17.3 mph 29.9 mph N/A Snow Light Snow
12:50 AM 12.2 °F -6.3 °F 6.8 °F 79% 30.27 in 7.0 mi NNE 20.7 mph 26.5 mph N/A Rain Light Freezing Rain
1:10 AM 10.4 °F -8.2 °F 6.8 °F 85% 30.30 in 2.0 mi NNE 19.6 mph 25.3 mph N/A Snow Light Snow
1:30 AM 10.4 °F -8.2 °F 6.8 °F 85% 30.31 in 2.5 mi North 19.6 mph 26.5 mph N/A Snow Light Snow
1:55 AM 10.4 °F -7.2 °F 5.0 °F 79% 30.33 in 5.0 mi NNE 17.3 mph 29.9 mph 0.01 in Snow Light Snow
2:10 AM 10.4 °F -4.1 °F 5.0 °F 79% 30.33 in 4.0 mi North 11.5 mph 24.2 mph N/A Snow Light Snow
2:30 AM 8.6 °F -10.5 °F 5.0 °F 85% 30.35 in 7.0 mi North 19.6 mph 26.5 mph N/A Rain Light Freezing Rain
2:50 AM 8.6 °F - 3.2 °F 79% 30.32 in 10.0 mi North - - N/A   Overcast
3:10 AM 8.6 °F - 3.2 °F 79% 30.33 in 10.0 mi North - - N/A   Overcast
3:30 AM 8.6 °F - 3.2 °F 79% 30.33 in 10.0 mi North - - N/A   Overcast
3:50 AM 8.6 °F - 5.0 °F 85% 30.33 in 10.0 mi North - - N/A   Overcast
4:10 AM 8.6 °F - 3.2 °F 79% 30.33 in 10.0 mi North - - N/A   Overcast
4:30 AM 8.6 °F - 3.2 °F 79% 30.33 in 10.0 mi North - - N/A   Overcast
4:50 AM 8.6 °F - 3.2 °F 79% 30.35 in 10.0 mi North - - N/A   Overcast
5:10 AM 8.6 °F - 3.2 °F 79% 30.36 in 10.0 mi North - - N/A   Overcast
5:30 AM 8.6 °F - 1.4 °F 73% 30.38 in 10.0 mi North - - N/A   Overcast
5:50 AM 8.6 °F - 3.2 °F 79% 30.37 in 10.0 mi North - - N/A   Overcast
6:10 AM 8.6 °F - 1.4 °F 73% 30.37 in 10.0 mi North - - N/A   Overcast
6:30 AM 8.6 °F - 1.4 °F 73% 30.37 in 10.0 mi North - - N/A   Overcast
6:50 AM 6.8 °F - 1.4 °F 79% 30.35 in 10.0 mi North - - N/A   Overcast
7:10 AM 6.8 °F - -0.4 °F 72% 30.34 in 10.0 mi North - - N/A   Mostly Cloudy
7:30 AM 6.8 °F - 1.4 °F 79% 30.38 in 10.0 mi North - - N/A   Mostly Cloudy
7:50 AM 8.6 °F -12.3 °F 1.4 °F 73% 30.37 in 10.0 mi NNE 24.2 mph 36.8 mph N/A   Overcast
8:10 AM 8.6 °F -10.0 °F 1.4 °F 73% 30.39 in 10.0 mi NNE 18.4 mph 34.5 mph N/A   Overcast
8:30 AM 8.6 °F -10.0 °F 1.4 °F 73% 30.41 in 10.0 mi North 18.4 mph 28.8 mph N/A   Overcast
8:50 AM 8.6 °F -10.5 °F 1.4 °F 73% 30.42 in 7.0 mi NNE 19.6 mph 27.6 mph N/A Rain Light Freezing Rain
9:10 AM 8.6 °F -11.0 °F 1.4 °F 73% 30.42 in 8.0 mi NNE 20.7 mph 29.9 mph N/A Rain Light Freezing Rain
9:30 AM 8.6 °F -9.5 °F 1.4 °F 73% 30.41 in 8.0 mi NNE 17.3 mph 28.8 mph N/A Rain Light Freezing Rain
9:50 AM 8.6 °F -12.3 °F 1.4 °F 73% 30.41 in 8.0 mi NNE 24.2 mph 31.1 mph N/A Rain Light Freezing Rain
10:10 AM 8.6 °F -8.3 °F 3.2 °F 79% 30.42 in 5.0 mi North 15.0 mph 28.8 mph N/A Rain Light Freezing Rain
10:30 AM 8.6 °F -11.9 °F 3.2 °F 79% 30.42 in 5.0 mi North 23.0 mph 28.8 mph N/A Rain Light Freezing Rain
10:50 AM 8.6 °F -11.4 °F 3.2 °F 79% 30.42 in 5.0 mi NNE 21.9 mph 32.2 mph 0.01 in Rain Light Freezing Rain
11:10 AM 8.6 °F -11.0 °F 1.4 °F 73% 30.41 in 4.0 mi NNE 20.7 mph 28.8 mph N/A Rain Light Freezing Rain
11:30 AM 8.6 °F -11.0 °F 3.2 °F 79% 30.43 in 3.0 mi North 20.7 mph 28.8 mph 0.01 in Rain Light Freezing Rain
11:50 AM 8.6 °F -11.0 °F 3.2 °F 79% 30.42 in 2.5 mi NNE 20.7 mph 26.5 mph 0.02 in Rain Light Freezing Rain
12:10 PM 8.6 °F -11.9 °F 3.2 °F 79% 30.40 in 2.5 mi NNE 23.0 mph 29.9 mph 0.01 in Rain Light Freezing Rain
12:30 PM 6.8 °F -12.9 °F 1.4 °F 79% 30.40 in 3.0 mi NNE 19.6 mph 29.9 mph 0.02 in Rain Light Freezing Rain
12:50 PM 8.6 °F -8.3 °F 1.4 °F 73% 30.41 in 2.5 mi NNE 15.0 mph 24.2 mph 0.05 in Rain Light Freezing Rain
1:10 PM 8.6 °F -10.5 °F 1.4 °F 73% 30.41 in 2.5 mi North 19.6 mph 25.3 mph 0.01 in Snow Light Snow
1:30 PM 8.6 °F -11.4 °F 3.2 °F 79% 30.39 in 1.0 mi North 21.9 mph 25.3 mph 0.08 in Snow Light Snow
1:50 PM 8.6 °F -11.0 °F 3.2 °F 79% 30.39 in 0.5 mi North 20.7 mph 25.3 mph 0.22 in Snow Snow
2:10 PM 8.6 °F -11.0 °F 5.0 °F 85% 30.37 in 0.2 mi NNE 20.7 mph 28.8 mph 0.23 in Snow Heavy Snow
2:30 PM 8.6 °F -10.5 °F 5.0 °F 85% 30.38 in 0.5 mi NNE 19.6 mph 27.6 mph 0.50 in Snow Snow
2:50 PM 8.6 °F -12.7 °F 5.0 °F 85% 30.37 in 0.5 mi NNE 25.3 mph 29.9 mph 0.64 in Snow Snow
3:10 PM 8.6 °F -11.4 °F 5.0 °F 85% 30.36 in 0.8 mi North 21.9 mph 26.5 mph 0.04 in Snow Light Snow
3:30 PM 8.6 °F -10.5 °F 3.2 °F 79% 30.35 in 1.5 mi NNE 19.6 mph - 0.08 in Snow Light Snow
3:50 PM 8.6 °F -10.5 °F 3.2 °F 79% 30.37 in 1.2 mi NNE 19.6 mph 25.3 mph 0.15 in Snow Light Snow
4:00 PM 8.6 °F -10.5 °F 1.4 °F 73% 30.39 in 1.8 mi NNE 19.6 mph 25.3 mph 0.16 in Snow Light Snow